Time,TemperatureF,DewpointF,PressureIn,WindDirection,WindDirectionDegrees,WindSpeedMPH,WindSpeedGustMPH,Humidity,HourlyPrecipIn,Conditions,Clouds,dailyrainin,SolarRadiationWatts/m^2,SoftwareType,DateUTC
2013-06-04 00:22:00,62.0,41.0,-100.00,SE,129,2.0,6.0,46,0.00,,,0.00,0.000000,,2013-06-04 07:22:00,
2013-06-04 00:32:00,62.0,41.0,-100.00,SE,129,2.0,6.0,46,0.00,,,0.00,0.000000,,2013-06-04 07:32:00,
2013-06-04 00:42:00,62.0,41.0,-100.00,SE,129,2.0,6.0,46,0.00,,,0.00,0.000000,,2013-06-04 07:42:00,
2013-06-04 00:52:00,62.0,41.0,-100.00,SE,129,2.0,6.0,46,0.00,,,0.00,0.000000,,2013-06-04 07:52:00,
2013-06-04 01:22:00,61.0,42.0,-100.00,SE,125,1.0,6.0,49,0.00,,,0.00,0.000000,,2013-06-04 08:22:00,
2013-06-04 01:32:00,61.0,42.0,-100.00,SE,125,1.0,6.0,49,0.00,,,0.00,0.000000,,2013-06-04 08:32:00,
2013-06-04 01:42:00,61.0,42.0,-100.00,SE,125,1.0,6.0,49,0.00,,,0.00,0.000000,,2013-06-04 08:42:00,
2013-06-04 01:52:00,61.0,42.0,-100.00,SE,125,1.0,6.0,49,0.00,,,0.00,0.000000,,2013-06-04 08:52:00,
2013-06-04 02:12:00,61.0,39.0,-100.00,SE,132,2.0,5.0,44,0.00,,,0.00,0.000000,,2013-06-04 09:12:00,
2013-06-04 02:22:00,61.0,39.0,-100.00,SE,132,2.0,5.0,44,0.00,,,0.00,0.000000,,2013-06-04 09:22:00,
2013-06-04 02:32:00,61.0,39.0,-100.00,SE,132,2.0,5.0,44,0.00,,,0.00,0.000000,,2013-06-04 09:32:00,
2013-06-04 02:42:00,61.0,39.0,-100.00,SE,132,2.0,5.0,44,0.00,,,0.00,0.000000,,2013-06-04 09:42:00,
2013-06-04 02:53:00,61.0,39.0,-100.00,SE,132,2.0,5.0,44,0.00,,,0.00,0.000000,,2013-06-04 09:53:00,
2013-06-04 03:22:00,60.0,42.0,-100.00,SE,131,0.0,5.0,52,0.00,,,0.00,0.000000,,2013-06-04 10:22:00,
2013-06-04 03:32:00,60.0,42.0,-100.00,SE,131,0.0,5.0,52,0.00,,,0.00,0.000000,,2013-06-04 10:32:00,
2013-06-04 03:42:00,60.0,42.0,-100.00,SE,131,0.0,5.0,52,0.00,,,0.00,0.000000,,2013-06-04 10:42:00,
2013-06-04 03:52:00,60.0,42.0,-100.00,SE,131,0.0,5.0,52,0.00,,,0.00,0.000000,,2013-06-04 10:52:00,
2013-06-04 04:22:00,57.0,43.0,-100.00,ESE,107,0.0,5.0,59,0.00,,,0.00,0.000000,,2013-06-04 11:22:00,
2013-06-04 04:32:00,57.0,43.0,-100.00,ESE,107,0.0,5.0,59,0.00,,,0.00,0.000000,,2013-06-04 11:32:00,
2013-06-04 04:42:00,57.0,43.0,-100.00,ESE,107,0.0,5.0,59,0.00,,,0.00,0.000000,,2013-06-04 11:42:00,
2013-06-04 04:52:00,57.0,43.0,-100.00,ESE,107,0.0,5.0,59,0.00,,,0.00,0.000000,,2013-06-04 11:52:00,
2013-06-04 05:22:00,59.0,45.0,-100.00,SE,133,0.0,5.0,59,0.00,,,0.00,0.000000,,2013-06-04 12:22:00,
2013-06-04 05:32:00,59.0,45.0,-100.00,SE,133,0.0,5.0,59,0.00,,,0.00,0.000000,,2013-06-04 12:32:00,
2013-06-04 05:42:00,59.0,45.0,-100.00,SE,133,0.0,5.0,59,0.00,,,0.00,0.000000,,2013-06-04 12:42:00,
2013-06-04 05:52:00,59.0,45.0,-100.00,SE,133,0.0,5.0,59,0.00,,,0.00,0.000000,,2013-06-04 12:52:00,
2013-06-04 06:22:00,58.0,44.0,-100.00,East,101,0.0,5.0,60,0.00,,,0.00,2.000000,,2013-06-04 13:22:00,
2013-06-04 06:32:00,58.0,44.0,-100.00,East,101,0.0,5.0,60,0.00,,,0.00,2.000000,,2013-06-04 13:32:00,
2013-06-04 06:42:00,58.0,44.0,-100.00,East,101,0.0,5.0,60,0.00,,,0.00,2.000000,,2013-06-04 13:42:00,
2013-06-04 06:52:00,58.0,44.0,-100.00,East,101,0.0,5.0,60,0.00,,,0.00,2.000000,,2013-06-04 13:52:00,
2013-06-04 07:22:00,59.0,48.0,-100.00,ESE,113,0.0,4.0,66,0.00,,,0.00,24.000000,,2013-06-04 14:22:00,
2013-06-04 07:32:00,59.0,48.0,-100.00,ESE,113,0.0,4.0,66,0.00,,,0.00,24.000000,,2013-06-04 14:32:00,
2013-06-04 07:42:00,59.0,48.0,-100.00,ESE,113,0.0,4.0,66,0.00,,,0.00,24.000000,,2013-06-04 14:42:00,
2013-06-04 07:52:00,59.0,48.0,-100.00,ESE,113,0.0,4.0,66,0.00,,,0.00,24.000000,,2013-06-04 14:52:00,
2013-06-04 08:22:00,68.0,50.0,-100.00,SSE,148,0.0,5.0,53,0.00,,,0.00,62.000000,,2013-06-04 15:22:00,
2013-06-04 08:33:00,68.0,50.0,-100.00,SSE,148,0.0,5.0,53,0.00,,,0.00,62.000000,,2013-06-04 15:33:00,
2013-06-04 08:42:00,68.0,50.0,-100.00,SSE,148,0.0,5.0,53,0.00,,,0.00,62.000000,,2013-06-04 15:42:00,
2013-06-04 08:53:00,68.0,50.0,-100.00,SSE,148,0.0,5.0,53,0.00,,,0.00,62.000000,,2013-06-04 15:53:00,
2013-06-04 09:22:00,77.0,48.0,-100.00,West,275,2.0,0.0,36,0.00,,,0.00,501.000000,,2013-06-04 16:22:00,
2013-06-04 09:42:00,77.0,48.0,-100.00,West,275,2.0,0.0,36,0.00,,,0.00,501.000000,,2013-06-04 16:42:00,
2013-06-04 09:52:00,77.0,48.0,-100.00,West,275,2.0,0.0,36,0.00,,,0.00,501.000000,,2013-06-04 16:52:00,
2013-06-04 10:23:00,78.0,47.0,-100.00,West,276,3.0,5.0,33,0.00,,,0.00,789.000000,,2013-06-04 17:23:00,
2013-06-04 10:32:00,78.0,47.0,-100.00,West,276,3.0,5.0,33,0.00,,,0.00,789.000000,,2013-06-04 17:32:00,
2013-06-04 10:42:00,78.0,47.0,-100.00,West,276,3.0,5.0,33,0.00,,,0.00,789.000000,,2013-06-04 17:42:00,
2013-06-04 10:52:00,78.0,47.0,-100.00,West,276,3.0,5.0,33,0.00,,,0.00,789.000000,,2013-06-04 17:52:00,
2013-06-04 11:22:00,79.0,47.0,-100.00,WSW,254,4.0,7.0,32,0.00,,,0.00,969.000000,,2013-06-04 18:22:00,
2013-06-04 11:32:00,79.0,47.0,-100.00,WSW,254,4.0,7.0,32,0.00,,,0.00,969.000000,,2013-06-04 18:32:00,
2013-06-04 11:42:00,79.0,47.0,-100.00,WSW,254,4.0,7.0,32,0.00,,,0.00,969.000000,,2013-06-04 18:42:00,
2013-06-04 11:52:00,79.0,47.0,-100.00,WSW,254,4.0,7.0,32,0.00,,,0.00,969.000000,,2013-06-04 18:52:00,
2013-06-04 12:22:00,80.0,47.0,-100.00,WNW,296,3.0,8.0,32,0.00,,,0.00,1099.000000,,2013-06-04 19:22:00,
2013-06-04 12:32:00,80.0,47.0,-100.00,WNW,296,3.0,8.0,32,0.00,,,0.00,1099.000000,,2013-06-04 19:32:00,
2013-06-04 12:42:00,80.0,47.0,-100.00,WNW,296,3.0,8.0,32,0.00,,,0.00,1099.000000,,2013-06-04 19:42:00,
2013-06-04 12:52:00,80.0,47.0,-100.00,WNW,296,3.0,8.0,32,0.00,,,0.00,1099.000000,,2013-06-04 19:52:00,
2013-06-04 13:22:00,83.0,49.0,-100.00,West,269,5.0,11.0,31,0.00,,,0.00,1156.000000,,2013-06-04 20:22:00,
2013-06-04 13:32:00,83.0,49.0,-100.00,West,269,5.0,11.0,31,0.00,,,0.00,1156.000000,,2013-06-04 20:32:00,
2013-06-04 13:42:00,83.0,49.0,-100.00,West,269,5.0,11.0,31,0.00,,,0.00,1156.000000,,2013-06-04 20:42:00,
2013-06-04 13:52:00,83.0,49.0,-100.00,West,269,5.0,11.0,31,0.00,,,0.00,1156.000000,,2013-06-04 20:52:00,
2013-06-04 14:22:00,82.0,48.0,-100.00,WSW,238,5.0,12.0,31,0.00,,,0.00,1148.000000,,2013-06-04 21:22:00,
2013-06-04 14:33:00,82.0,48.0,-100.00,WSW,238,5.0,12.0,31,0.00,,,0.00,1148.000000,,2013-06-04 21:33:00,
2013-06-04 14:42:00,82.0,48.0,-100.00,WSW,238,5.0,12.0,31,0.00,,,0.00,1148.000000,,2013-06-04 21:42:00,
2013-06-04 14:52:00,82.0,48.0,-100.00,WSW,238,5.0,12.0,31,0.00,,,0.00,1148.000000,,2013-06-04 21:52:00,
2013-06-04 15:22:00,87.0,50.0,-100.00,SE,134,4.0,12.0,28,0.00,,,0.00,1085.000000,,2013-06-04 22:22:00,
2013-06-04 15:32:00,87.0,50.0,-100.00,SE,134,4.0,12.0,28,0.00,,,0.00,1085.000000,,2013-06-04 22:32:00,
2013-06-04 15:42:00,87.0,50.0,-100.00,SE,134,4.0,12.0,28,0.00,,,0.00,1085.000000,,2013-06-04 22:42:00,
2013-06-04 15:52:00,87.0,50.0,-100.00,SE,134,4.0,12.0,28,0.00,,,0.00,1085.000000,,2013-06-04 22:52:00,
2013-06-04 16:22:00,87.0,50.0,-100.00,WSW,254,4.0,10.0,28,0.00,,,0.00,952.000000,,2013-06-04 23:22:00,
2013-06-04 16:32:00,87.0,50.0,-100.00,WSW,254,4.0,10.0,28,0.00,,,0.00,952.000000,,2013-06-04 23:32:00,
2013-06-04 16:42:00,87.0,50.0,-100.00,WSW,254,4.0,10.0,28,0.00,,,0.00,952.000000,,2013-06-04 23:42:00,
2013-06-04 16:52:00,87.0,50.0,-100.00,WSW,254,4.0,10.0,28,0.00,,,0.00,952.000000,,2013-06-04 23:52:00,
2013-06-04 17:22:00,87.0,49.0,-100.00,West,266,3.0,10.0,27,0.00,,,0.00,776.000000,,2013-06-05 00:22:00,
2013-06-04 17:32:00,87.0,49.0,-100.00,West,266,3.0,10.0,27,0.00,,,0.00,776.000000,,2013-06-05 00:32:00,
2013-06-04 17:42:00,87.0,49.0,-100.00,West,266,3.0,10.0,27,0.00,,,0.00,776.000000,,2013-06-05 00:42:00,
2013-06-04 17:52:00,87.0,49.0,-100.00,West,266,3.0,10.0,27,0.00,,,0.00,776.000000,,2013-06-05 00:52:00,
2013-06-04 18:22:00,85.0,48.0,-100.00,NNW,346,2.0,10.0,28,0.00,,,0.00,546.000000,,2013-06-05 01:22:00,
2013-06-04 18:32:00,85.0,48.0,-100.00,NNW,346,2.0,10.0,28,0.00,,,0.00,546.000000,,2013-06-05 01:32:00,
2013-06-04 18:42:00,85.0,48.0,-100.00,NNW,346,2.0,10.0,28,0.00,,,0.00,546.000000,,2013-06-05 01:42:00,
2013-06-04 18:52:00,85.0,48.0,-100.00,NNW,346,2.0,10.0,28,0.00,,,0.00,546.000000,,2013-06-05 01:52:00,
2013-06-04 19:22:00,79.0,48.0,-100.00,NW,312,1.0,11.0,34,0.00,,,0.00,262.000000,,2013-06-05 02:22:00,
2013-06-04 19:32:00,79.0,48.0,-100.00,NW,312,1.0,11.0,34,0.00,,,0.00,262.000000,,2013-06-05 02:32:00,
2013-06-04 19:42:00,79.0,48.0,-100.00,NW,312,1.0,11.0,34,0.00,,,0.00,262.000000,,2013-06-05 02:42:00,
2013-06-04 19:52:00,79.0,48.0,-100.00,NW,312,1.0,11.0,34,0.00,,,0.00,262.000000,,2013-06-05 02:52:00,
2013-06-04 20:22:00,72.0,48.0,-100.00,NW,316,0.0,7.0,43,0.00,,,0.00,38.000000,,2013-06-05 03:22:00,
2013-06-04 20:33:00,72.0,48.0,-100.00,NW,316,0.0,7.0,43,0.00,,,0.00,38.000000,,2013-06-05 03:33:00,
2013-06-04 20:43:00,72.0,48.0,-100.00,NW,316,0.0,7.0,43,0.00,,,0.00,38.000000,,2013-06-05 03:43:00,
2013-06-04 20:53:00,72.0,48.0,-100.00,NW,316,0.0,7.0,43,0.00,,,0.00,38.000000,,2013-06-05 03:53:00,
2013-06-04 21:22:00,65.0,48.0,-100.00,ESE,118,0.0,6.0,55,0.00,,,0.00,1.000000,,2013-06-05 04:22:00,
2013-06-04 21:33:00,65.0,48.0,-100.00,ESE,118,0.0,6.0,55,0.00,,,0.00,1.000000,,2013-06-05 04:33:00,
2013-06-04 21:42:00,65.0,48.0,-100.00,ESE,118,0.0,6.0,55,0.00,,,0.00,1.000000,,2013-06-05 04:42:00,
2013-06-04 21:53:00,65.0,48.0,-100.00,ESE,118,0.0,6.0,55,0.00,,,0.00,1.000000,,2013-06-05 04:53:00,
2013-06-04 22:22:00,63.0,48.0,-100.00,East,99,0.0,0.0,59,0.00,,,0.00,0.000000,,2013-06-05 05:22:00,
2013-06-04 22:32:00,63.0,48.0,-100.00,East,99,0.0,0.0,59,0.00,,,0.00,0.000000,,2013-06-05 05:32:00,
2013-06-04 22:42:00,63.0,48.0,-100.00,East,99,0.0,0.0,59,0.00,,,0.00,0.000000,,2013-06-05 05:42:00,
2013-06-04 22:52:00,63.0,48.0,-100.00,East,99,0.0,0.0,59,0.00,,,0.00,0.000000,,2013-06-05 05:52:00,
2013-06-04 23:22:00,61.0,47.0,-100.00,SE,126,0.0,4.0,59,0.00,,,0.00,0.000000,,2013-06-05 06:22:00,
2013-06-04 23:32:00,61.0,47.0,-100.00,SE,126,0.0,4.0,59,0.00,,,0.00,0.000000,,2013-06-05 06:32:00,
2013-06-04 23:42:00,61.0,47.0,-100.00,SE,126,0.0,4.0,59,0.00,,,0.00,0.000000,,2013-06-05 06:42:00,
2013-06-04 23:52:00,61.0,47.0,-100.00,SE,126,0.0,4.0,59,0.00,,,0.00,0.000000,,2013-06-05 06:52:00,